Akron, OH

11:40 PM EDT on September 20, 2017 (GMT -0400)
Akron Fulton International

Weather History for KAKR - August, 2013

Change the Weather History Date:

Friday, August 30, 2013

  Actual Average (KCAK) Record (KCAK)
Temperature  
Mean Temperature 74 °F -  
Max Temperature 87 °F 79 °F 98 °F (1953)
Min Temperature 62 °F 59 °F 40 °F (1934)
Cooling Degree Days 9    
Growing Degree Days 24 (Base 50)    
Moisture  
Dew Point 64 °F    
Average Humidity 86    
Maximum Humidity 100    
Minimum Humidity 49    
Precipitation  
Precipitation 0.00 in - - ()
Sea Level Pressure  
Sea Level Pressure 29.97 in    
Wind  
Wind Speed 1 mph (SW)    
Max Wind Speed 13 mph    
Max Gust Speed 18 mph    
Visibility 5 miles    
Events Fog    
Averages and records for this station are not official NWS values.
T = Trace of Precipitation, MM = Missing Value Source: NWS Daily Summary

Daily Weather History Graph

Daily Weather History Graph

Search for Another Location

Airport or City:

Trip Planner

Search our weather history database for the weather conditions in past years. The results will help you decide how hot, cold, wet, or windy it might be!

Date:

Astronomy

Aug. 30, 2013 Rise Set
Actual Time 6:50 AM EDT 8:01 PM EDT
Civil Twilight 6:22 AM EDT 8:29 PM EDT
Nautical Twilight 5:48 AM EDT 9:03 PM EDT
Astronomical Twilight 5:12 AM EDT 9:38 PM EDT
Moon 1:26 AM EDT (8/30) 4:17 PM EDT (8/30)
Length of Visible Light 14h 07m
Length of Day
13h 10m
Waning Crescent, 29% of the Moon is Illuminated
Aug 30
Waning Crescent
Sep 5
New
Sep 12
First Quarter
Sep 19
Full
Sep 26
Last Quarter

Hourly Weather History & Observations

Time (EDT) Temp. Heat Index Dew Point Humidity Pressure Visibility Wind Dir Wind Speed Gust Speed Precip Events Conditions
12:54 AM 66.9 °F - 64.9 °F 93% 30.02 in 7.0 mi Calm Calm - N/A   Clear
1:54 AM 66.0 °F - 64.0 °F 93% 30.00 in 7.0 mi Calm Calm - N/A   Clear
2:54 AM 66.0 °F - 64.9 °F 96% 30.00 in 4.0 mi Calm Calm - N/A   Clear
3:07 AM 64.4 °F - 64.4 °F 100% 30.02 in 1.8 mi Calm Calm - N/A   Clear
3:27 AM 64.4 °F - 62.6 °F 94% 30.02 in 0.5 mi Calm Calm - N/A Fog Fog
3:36 AM 64.4 °F - 64.4 °F 100% 30.02 in 2.0 mi Calm Calm - N/A   Clear
3:43 AM 66.2 °F - 64.4 °F 94% 30.02 in 5.0 mi Calm Calm - N/A   Clear
3:54 AM 66.0 °F - 64.9 °F 96% 29.99 in 5.0 mi Calm Calm - N/A   Clear
4:01 AM 64.4 °F - 62.6 °F 94% 30.02 in 1.2 mi Calm Calm - N/A   Clear
4:04 AM 64.4 °F - 62.6 °F 94% 30.02 in 0.5 mi Calm Calm - N/A Fog Fog
4:14 AM 62.6 °F - 62.6 °F 100% 30.02 in 2.5 mi Calm Calm - N/A   Clear
4:21 AM 62.6 °F - 62.6 °F 100% 30.02 in 5.0 mi Calm Calm - N/A   Clear
4:54 AM 64.9 °F - 64.0 °F 97% 30.00 in 3.0 mi Calm Calm - N/A   Clear
5:01 AM 64.4 °F - 62.6 °F 94% 30.02 in 0.8 mi Calm Calm - N/A   Clear
5:18 AM 64.4 °F - 62.6 °F 94% 30.02 in 1.8 mi Calm Calm - N/A   Clear
5:24 AM 62.6 °F - 62.6 °F 100% 30.02 in 3.0 mi Calm Calm - N/A   Clear
5:39 AM 62.6 °F - 62.6 °F 100% 30.02 in 1.8 mi Calm Calm - N/A   Clear
5:50 AM 62.6 °F - 60.8 °F 94% 30.01 in 2.5 mi Calm Calm - N/A   Partly Cloudy
5:51 AM 62.6 °F - 62.6 °F 100% 30.01 in 3.0 mi Calm Calm - N/A   Partly Cloudy
5:54 AM 63.0 °F - 62.1 °F 97% 29.99 in 0.8 mi Calm Calm - N/A   Mist
6:24 AM 62.6 °F - 62.6 °F 100% 30.01 in 1.8 mi Calm Calm - N/A   Partly Cloudy
6:26 AM 62.6 °F - 62.6 °F 100% 30.01 in 4.0 mi Calm Calm - N/A   Partly Cloudy
6:47 AM 62.6 °F - 62.6 °F 100% 30.01 in 1.5 mi Calm Calm - N/A   Clear
6:54 AM 63.0 °F - 63.0 °F 100% 29.99 in 1.2 mi Calm Calm - N/A   Clear
7:01 AM 62.6 °F - 60.8 °F 94% 30.01 in 3.0 mi Calm Calm - N/A   Clear
7:14 AM 62.6 °F - 62.6 °F 100% 30.02 in 1.8 mi Calm Calm - N/A   Clear
7:28 AM 62.6 °F - 62.6 °F 100% 30.02 in 0.5 mi Calm Calm - N/A Fog Fog
7:34 AM 62.6 °F - 62.6 °F 100% 30.02 in 2.5 mi Calm Calm - N/A   Clear
7:41 AM 64.4 °F - 62.6 °F 94% 30.02 in 4.0 mi Calm Calm - N/A   Clear
7:54 AM 64.9 °F - 64.0 °F 97% 30.00 in 3.0 mi Calm Calm - N/A   Clear
8:54 AM 72.0 °F - 69.1 °F 91% 29.99 in 5.0 mi Calm Calm - N/A   Clear
9:54 AM 77.0 °F - 68.0 °F 74% 29.98 in 9.0 mi West 4.6 mph - N/A   Clear
10:54 AM 80.1 °F 82.3 °F 66.9 °F 64% 29.98 in 10.0 mi SW 6.9 mph - N/A   Clear
11:54 AM 81.0 °F 83.3 °F 66.9 °F 62% 29.96 in 10.0 mi SW 11.5 mph - N/A   Partly Cloudy
12:54 PM 82.9 °F 85.0 °F 66.0 °F 56% 29.94 in 10.0 mi SSW 6.9 mph - N/A   Clear
1:54 PM 84.9 °F 86.6 °F 64.9 °F 51% 29.92 in 10.0 mi WSW 8.1 mph 16.1 mph N/A   Partly Cloudy
2:54 PM 86.0 °F 88.2 °F 66.0 °F 51% 29.90 in 10.0 mi SW 9.2 mph - N/A   Partly Cloudy
3:54 PM 86.0 °F 87.6 °F 64.9 °F 49% 29.89 in 10.0 mi WSW 12.7 mph 18.4 mph N/A   Partly Cloudy
4:54 PM 86.0 °F 88.2 °F 66.0 °F 51% 29.86 in 10.0 mi West 10.4 mph - N/A   Clear
5:54 PM 84.0 °F 86.3 °F 66.0 °F 55% 29.84 in 9.0 mi SSW 12.7 mph - N/A   Partly Cloudy
6:54 PM 82.9 °F 85.0 °F 66.0 °F 56% 29.83 in 8.0 mi SW 11.5 mph - N/A   Clear
7:54 PM 79.0 °F - 66.9 °F 66% 29.85 in 7.0 mi SSW 6.9 mph - N/A   Scattered Clouds
8:54 PM 77.0 °F - 68.0 °F 74% 29.85 in 7.0 mi Calm Calm - N/A   Clear
9:54 PM 73.9 °F - 68.0 °F 82% 29.83 in 6.0 mi SSW 5.8 mph - N/A   Haze
10:54 PM 73.9 °F - 69.1 °F 85% 29.82 in 6.0 mi SSW 9.2 mph - N/A   Haze
11:54 PM 73.0 °F - 68.0 °F 84% 29.82 in 6.0 mi SSW 6.9 mph - N/A   Haze